Location: Kings Park
(40.8862°N, 73.2573°W)
Time: 04:35:11
(UTC+00:00)

Cosmos 1726 Rocket - Pass Details

Date: 29 October 2020
Orbit: 603 x 629 km, 82.5° (Epoch: 29 November)

Event Time Altitude Azimuth Distance (km) Brightness Sun altitude
Rises 22:12:34 0° 181° (S) 2,853 7.2 -4.6°
Reaches altitude 10° 22:14:46 10° 179° (S) 1,957 6.3 -5.0°
Maximum altitude 22:19:05 71° 96° (E) 652 3.5 -5.7°
Drops below altitude 10° 22:23:28 10° 12° (NNE) 1,988 5.9 -6.6°
Sets 22:25:43 0° 11° (N) 2,903 6.8 -7.0°
